Location: Avoca
(45.7167°N, 74.7000°W)
Time: 11:26:50
(UTC+00:00)

Tiangong - Pass Details

Date: 04 December 2022
Orbit: 383 x 386 km, 41.5° (Epoch: 30 January)

Event Time Altitude Azimuth Distance (km) Brightness Sun altitude
Rises 22:34:16 0° 249° (WSW) 2,253 3.8 -13.3°
Reaches altitude 10° 22:36:26 10° 240° (WSW) 1,402 2.1 -13.7°
Maximum altitude 22:39:21 35° 173° (S) 647 -0.9 -14.1°
Enters shadow 22:40:56 21° 120° (ESE) 937 -0.6 -14.4°
